User: anonymous
Location: Caltech
(34.1382°N, 118.1253°W)
Time: 06:39:36
(UTC-07:00)
Language:

Cosmos 1408 Rocket - Orbit

View from above orbital plane
View from above orbital plane
View from above satellite
View from above satellite

Ground track
Ground track

The orbit data is extracted from the following two-line orbital elements,

1 13553U 82092B   14205.97658104  .00000174  00000-0  18131-4 0  9608
2 13553 082.5712 139.7087 0020138 302.2414 112.2378 14.83555242720102
Epoch (UTC): 24 July 2014 23:26:16
Eccentricity: 0.0020138
inclination: 82.5712°
perigee height: 604 km
apogee height: 632 km
right ascension of ascending node: 139.7087°
argument of perigee: 302.2414°
revolutions per day: 14.83555242
mean anomaly at epoch: 112.2378°
orbit number at epoch: 72010

The dashed part of the orbit path shows where the satellite is in the earth's shadow,  

DLR